Location: Sungai Juaw
(2.6833°N, 113.5333°E)
Time: 14:09:28
(UTC+00:00)

SME Rocket - Pass Details

Date: 04 August 2024
Orbit: 550 x 2642 km, 99.9° (Epoch: 10 September)

Event Time Altitude Azimuth Distance (km) Brightness Sun altitude
Rises 20:44:38 0° 19° (NNE) 3,591 7.5 -24.7°
Reaches altitude 10° 20:47:26 10° 23° (NNE) 2,402 6.6 -24.0°
Maximum altitude 20:52:18 56° 101° (E) 772 3.7 -22.9°
Enters shadow 20:54:36 23° 172° (S) 1,274 4.5 -22.3°
